カタログに戻る

HULIANWANG DIGUI-47

運用中通信LEO
NORAD 65050·PAYLOAD·🇨🇳 China

打ち上げ Jul 30, 2025 から Wenchang Space Launch Site

Loading…

次のパス (今後24時間)

TLE

最新Source: Space-Track

元期: Sep 14, 2026, 20:55 UTC

1 65050U 25162H   26257.87184164 -.00000076  00000-0  10418-3 0  9994
2 65050  50.0034 303.8467 0000659 264.5743  95.5054 13.29330028 55292

AllMySatでHULIANWANG DIGUI-47をリアルタイム追跡

Download on the App Store